Location: Hlohovi?ky
(49.8934°N, 13.6739°E)
Time: 19:15:01
(UTC+00:00)

Cosmos 1624 Rocket - Pass Details

Date: 19 May 2025
Orbit: 753 x 779 km, 74.0° (Epoch: 20 June)

Event Time Altitude Azimuth Distance (km) Brightness Sun altitude
Rises 22:44:44 0° 338° (NNW) 3,223 8.6 -20.0°
Reaches altitude 10° 22:47:10 10° 343° (NNW) 2,296 7.6 -20.0°
Maximum altitude 22:52:17 56° 62° (ENE) 907 4.5 -20.1°
Enters shadow 22:54:56 27° 129° (SE) 1,423 5.0 -20.1°
